• In Hungary
  • List of Countries
  • For 7 days
  • Water Temperature
  • Satellite Maps
  • Weather Map
  • News
  • Weather Widgets
  • user-avatar
    Login

    Hourly Weather Suhl

    Today, 22 May, Tuesday

    Time Temperature Precipitation Wind Pressure Humidity
    00:00 +10°C° 0 mm 2 mps 714 mmHg 90%
    01:00 +11°C° 0 mm 1 mps 714 mmHg 92%
    02:00 +10°C° 0 mm 1 mps 714 mmHg 93%
    03:00 +10°C° 0 mm 1 mps 714 mmHg 93%
    04:00 +9°C° 0 mm 1 mps 713 mmHg 94%
    05:00 +11°C° 0 mm 1 mps 714 mmHg 89%
    06:00 +13°C° 0 mm 1 mps 714 mmHg 83%
    07:00 +14°C° 0 mm 1 mps 714 mmHg 78%
    08:00 +16°C° 0 mm 2 mps 715 mmHg 72%
    09:00 +18°C° 0 mm 2 mps 715 mmHg 65%
    10:00 +20°C° 0 mm 3 mps 715 mmHg 58%
    11:00 +21°C° 0 mm 3 mps 715 mmHg 55%
    12:00 +22°C° 0 mm 3 mps 715 mmHg 52%
    13:00 +24°C° 0 mm 3 mps 715 mmHg 48%
    14:00 +22°C° 0.1 mm 3 mps 715 mmHg 51%
    15:00 +22°C° 0.1 mm 3 mps 715 mmHg 54%
    16:00 +22°C° 0.1 mm 3 mps 715 mmHg 57%
    17:00 +20°C° 0.4 mm 3 mps 714 mmHg 65%
    18:00 +19°C° 0.4 mm 3 mps 714 mmHg 73%
    19:00 +17°C° 0.4 mm 3 mps 714 mmHg 81%
    20:00 +16°C° 0.1 mm 3 mps 715 mmHg 83%
    21:00 +14°C° 0.1 mm 3 mps 715 mmHg 85%
    22:00 +14°C° 0.1 mm 2 mps 715 mmHg 87%
    23:00 +13°C° 0.1 mm 2 mps 715 mmHg 87%

    Tomorrow, 23 May, Wednesday

    Time Temperature Precipitation Wind Pressure Humidity
    00:00 +13°C° 0.1 mm 2 mps 715 mmHg 88%
    01:00 +12°C° 0.1 mm 2 mps 716 mmHg 89%
    02:00 +12°C° 0.1 mm 1 mps 716 mmHg 89%
    03:00 +12°C° 0.1 mm 1 mps 716 mmHg 90%
    04:00 +11°C° 0.1 mm 1 mps 716 mmHg 90%
    05:00 +12°C° 0.1 mm 2 mps 717 mmHg 89%
    06:00 +13°C° 0.1 mm 2 mps 717 mmHg 88%
    07:00 +14°C° 0.1 mm 2 mps 718 mmHg 86%
    08:00 +16°C° 0 mm 3 mps 718 mmHg 79%
    09:00 +17°C° 0 mm 4 mps 719 mmHg 73%
    10:00 +19°C° 0 mm 4 mps 719 mmHg 66%
    11:00 +20°C° 0.1 mm 5 mps 719 mmHg 64%
    12:00 +20°C° 0.1 mm 5 mps 719 mmHg 62%
    13:00 +21°C° 0.1 mm 5 mps 719 mmHg 60%
    14:00 +21°C° 0.1 mm 5 mps 719 mmHg 61%
    15:00 +21°C° 0.1 mm 5 mps 719 mmHg 63%
    16:00 +21°C° 0.1 mm 5 mps 719 mmHg 64%
    17:00 +20°C° 0 mm 5 mps 719 mmHg 68%
    18:00 +19°C° 0 mm 4 mps 719 mmHg 71%
    19:00 +18°C° 0 mm 4 mps 719 mmHg 75%
    20:00 +17°C° 0 mm 4 mps 719 mmHg 77%
    21:00 +16°C° 0 mm 3 mps 719 mmHg 80%
    22:00 +14°C° 0 mm 3 mps 719 mmHg 82%
    23:00 +13°C° 0 mm 3 mps 719 mmHg 85%

    Day after tomorrow, 24 May, Thursday

    Time Temperature Precipitation Wind Pressure Humidity
    00:00 +13°C° 0 mm 3 mps 719 mmHg 87%
    01:00 +12°C° 0 mm 3 mps 719 mmHg 90%
    02:00 +12°C° 0 mm 3 mps 719 mmHg 92%
    03:00 +11°C° 0 mm 3 mps 719 mmHg 93%
    04:00 +11°C° 0 mm 3 mps 719 mmHg 95%
    05:00 +12°C° 0.1 mm 3 mps 719 mmHg 93%
    06:00 +13°C° 0.1 mm 3 mps 720 mmHg 90%
    07:00 +14°C° 0.1 mm 4 mps 720 mmHg 87%
    08:00 +15°C° 0.1 mm 4 mps 720 mmHg 82%
    09:00 +18°C° 0.1 mm 4 mps 720 mmHg 77%
    10:00 +20°C° 0.1 mm 5 mps 721 mmHg 72%
    11:00 +20°C° 0.5 mm 5 mps 720 mmHg 73%
    12:00 +20°C° 0.5 mm 5 mps 720 mmHg 74%
    13:00 +21°C° 0.5 mm 5 mps 720 mmHg 75%
    14:00 +21°C° 0.7 mm 5 mps 720 mmHg 76%
    15:00 +21°C° 0.7 mm 5 mps 719 mmHg 77%
    16:00 +20°C° 0.7 mm 5 mps 719 mmHg 78%
    17:00 +20°C° 0.4 mm 4 mps 719 mmHg 81%
    18:00 +19°C° 0.4 mm 4 mps 719 mmHg 84%
    19:00 +18°C° 0.4 mm 3 mps 719 mmHg 86%
    20:00 +17°C° 0.2 mm 3 mps 719 mmHg 88%
    21:00 +16°C° 0.2 mm 3 mps 719 mmHg 89%
    22:00 +14°C° 0.2 mm 3 mps 719 mmHg 91%
    23:00 +14°C° 0.2 mm 3 mps 719 mmHg 92%

    25 May, Friday

    Time Temperature Precipitation Wind Pressure Humidity
    00:00 +14°C° 0.2 mm 2 mps 719 mmHg 94%
    01:00 +14°C° 0.2 mm 2 mps 719 mmHg 96%
    02:00 +14°C° 0.3 mm 2 mps 719 mmHg 96%
    03:00 +13°C° 0.3 mm 2 mps 718 mmHg 97%
    04:00 +13°C° 0.3 mm 2 mps 718 mmHg 97%
    05:00 +14°C° 0.1 mm 2 mps 719 mmHg 95%
    06:00 +15°C° 0.1 mm 2 mps 719 mmHg 92%
    07:00 +16°C° 0.1 mm 2 mps 719 mmHg 90%
    08:00 +17°C° 0.1 mm 3 mps 719 mmHg 82%
    09:00 +19°C° 0.1 mm 3 mps 720 mmHg 75%
    10:00 +21°C° 0.1 mm 3 mps 720 mmHg 68%
    11:00 +22°C° 0.3 mm 3 mps 720 mmHg 66%
    12:00 +22°C° 0.3 mm 3 mps 720 mmHg 64%
    13:00 +24°C° 0.3 mm 3 mps 720 mmHg 62%
    14:00 +24°C° 0.7 mm 3 mps 719 mmHg 65%
    15:00 +24°C° 0.7 mm 3 mps 719 mmHg 67%
    16:00 +24°C° 0.7 mm 2 mps 719 mmHg 69%
    17:00 +23°C° 0.5 mm 2 mps 719 mmHg 75%
    18:00 +21°C° 0.5 mm 2 mps 719 mmHg 80%
    19:00 +20°C° 0.5 mm 2 mps 719 mmHg 85%
    20:00 +20°C° 0.1 mm 1 mps 719 mmHg 88%
    21:00 +18°C° 0.1 mm 1 mps 719 mmHg 90%
    22:00 +16°C° 0.1 mm 1 mps 719 mmHg 93%
    23:00 +16°C° 0.2 mm 1 mps 719 mmHg 93%

    26 May, Saturday

    Time Temperature Precipitation Wind Pressure Humidity
    00:00 +16°C° 0.2 mm 1 mps 719 mmHg 93%
    01:00 +15°C° 0.2 mm 1 mps 719 mmHg 94%
    02:00 +15°C° 0 mm 1 mps 719 mmHg 94%
    03:00 +14°C° 0 mm 0 mps 719 mmHg 94%
    04:00 +13°C° 0 mm 0 mps 719 mmHg 94%
    05:00 +15°C° 0 mm 0 mps 719 mmHg 92%
    06:00 +18°C° 0 mm 1 mps 720 mmHg 90%
    07:00 +19°C° 0 mm 1 mps 720 mmHg 88%
    08:00 +21°C° 0 mm 1 mps 720 mmHg 80%
    09:00 +23°C° 0 mm 1 mps 721 mmHg 72%
    10:00 +25°C° 0 mm 1 mps 721 mmHg 64%
    11:00 +26°C° 0.4 mm 1 mps 721 mmHg 62%
    12:00 +27°C° 0.4 mm 1 mps 721 mmHg 61%
    13:00 +27°C° 0.4 mm 1 mps 721 mmHg 59%
    14:00 +27°C° 1.2 mm 1 mps 721 mmHg 63%
    15:00 +26°C° 1.2 mm 2 mps 720 mmHg 67%
    16:00 +25°C° 1.2 mm 2 mps 720 mmHg 71%
    17:00 +24°C° 0.4 mm 2 mps 720 mmHg 76%
    18:00 +23°C° 0.4 mm 2 mps 720 mmHg 80%
    19:00 +21°C° 0.4 mm 2 mps 720 mmHg 85%
    20:00 +21°C° 0 mm 1 mps 720 mmHg 87%
    21:00 +19°C° 0 mm 1 mps 720 mmHg 90%
    22:00 +18°C° 0 mm 1 mps 720 mmHg 92%
    23:00 +18°C° 0 mm 1 mps 720 mmHg 92%

    27 May, Sunday

    Time Temperature Precipitation Wind Pressure Humidity
    00:00 +16°C° 0 mm 1 mps 720 mmHg 93%
    01:00 +16°C° 0 mm 1 mps 720 mmHg 93%
    02:00 +16°C° 0 mm 1 mps 720 mmHg 94%
    03:00 +16°C° 0 mm 1 mps 720 mmHg 94%
    04:00 +15°C° 0 mm 1 mps 720 mmHg 95%
    05:00 +16°C° 0 mm 1 mps 721 mmHg 92%
    06:00 +19°C° 0 mm 1 mps 721 mmHg 89%
    07:00 +19°C° 0 mm 2 mps 721 mmHg 87%
    08:00 +21°C° 0 mm 2 mps 721 mmHg 80%
    09:00 +23°C° 0 mm 2 mps 722 mmHg 72%
    10:00 +25°C° 0 mm 3 mps 722 mmHg 65%
    11:00 +26°C° 0.4 mm 2 mps 722 mmHg 64%
    12:00 +26°C° 0.4 mm 2 mps 722 mmHg 63%
    13:00 +27°C° 0.4 mm 2 mps 722 mmHg 62%
    14:00 +26°C° 1.1 mm 3 mps 721 mmHg 66%
    15:00 +26°C° 1.1 mm 3 mps 721 mmHg 70%
    16:00 +25°C° 1.1 mm 4 mps 721 mmHg 75%
    17:00 +24°C° 0.4 mm 3 mps 721 mmHg 78%
    18:00 +22°C° 0.4 mm 3 mps 720 mmHg 81%
    19:00 +21°C° 0.4 mm 3 mps 720 mmHg 84%
    20:00 +20°C° 0 mm 3 mps 720 mmHg 85%
    21:00 +19°C° 0 mm 3 mps 720 mmHg 87%
    22:00 +18°C° 0 mm 3 mps 721 mmHg 88%
    23:00 +17°C° 0.1 mm 2 mps 720 mmHg 90%
    Show more